Starlink 2435

operational
NORAD ID: 47843 Int'l Des: 2021-018 Owner: SPXS Country: US Constellation: starlink
LEOCIRCULARSTARLINK_TYPE

About Starlink 2435

Description loading...

Live Position

Loading 3D Globe...

Upcoming Passes

Altitude History

Altitude vs Time

uPlot chart will show altitude changes over time

Two-Line Element Set

1 47843U 21018BJ 25307.83841170 .00001860 00000-0 14375-3 0 9995
2 47843 53.0544 101.5846 0001387 91.9388 268.1760 15.06398075257571
Epoch: Nov 3, 2025 • Age: 18 hours

Current Status

Altitude 548.1 km
Velocity 7.59 km/s
Sub-Earth Point 28.68°N, 4.09°W
Launch Date Mar 11, 2021
Age 4.6 years
Type internet

Technical Details

Classification Payload
Mass 260.00 kg
Dry Mass 248.00 kg
Total Mass 260.00 kg
Length 0.20 m
Diameter 2.80 m
Span 9.00 m
Shape Box + pan
Manufacturer SPXS
Bus Type Starlink
Phase Status In Orbit
Owner/State SPXS/US

Large Constellations

Loading constellations...